TimeEDT,TemperatureF,Dew PointF,Humidity,Sea Level PressureIn,VisibilityMPH,Wind Direction,Wind SpeedMPH,Gust SpeedMPH,PrecipitationIn,Events,Conditions,WindDirDegrees,DateUTC
12:55 AM,51.1,46.9,86,29.70,9.0,SSE,10.4,-,0.06,Rain,Light Rain,150,2012-09-20 04:55:00
1:18 AM,51.1,46.9,86,29.68,7.0,SSE,11.5,24.2,0.05,Rain,Light Rain,150,2012-09-20 05:18:00
1:27 AM,51.1,46.9,86,29.67,10.0,SSE,11.5,18.4,0.05,,Overcast,160,2012-09-20 05:27:00
1:39 AM,51.1,46.9,86,29.64,10.0,SE,15.0,21.9,0.05,,Overcast,140,2012-09-20 05:39:00
1:55 AM,51.1,48.0,89,29.63,10.0,SSE,9.2,19.6,0.05,,Overcast,160,2012-09-20 05:55:00
2:09 AM,52.0,48.0,86,29.64,10.0,South,11.5,20.7,N/A,,Overcast,180,2012-09-20 06:09:00
2:55 AM,52.0,48.0,86,29.65,10.0,South,10.4,-,N/A,,Overcast,180,2012-09-20 06:55:00
3:55 AM,52.0,48.0,86,29.66,10.0,South,10.4,-,N/A,,Overcast,190,2012-09-20 07:55:00
4:22 AM,53.1,48.9,86,29.66,10.0,South,9.2,-,N/A,,Overcast,190,2012-09-20 08:22:00
4:36 AM,52.0,48.9,89,29.66,10.0,SSW,6.9,-,N/A,,Mostly Cloudy,200,2012-09-20 08:36:00
4:55 AM,52.0,48.9,89,29.66,10.0,South,8.1,-,N/A,,Mostly Cloudy,190,2012-09-20 08:55:00
5:23 AM,52.0,48.9,89,29.66,10.0,South,6.9,-,N/A,,Overcast,190,2012-09-20 09:23:00
5:55 AM,51.1,48.0,89,29.66,10.0,Calm,Calm,-,N/A,,Mostly Cloudy,0,2012-09-20 09:55:00
6:02 AM,51.1,48.0,89,29.66,10.0,SSE,3.5,-,N/A,,Scattered Clouds,150,2012-09-20 10:02:00
6:26 AM,50.0,48.0,93,29.66,10.0,SE,3.5,-,N/A,,Mostly Cloudy,140,2012-09-20 10:26:00
6:55 AM,51.1,48.0,89,29.67,10.0,SE,3.5,-,N/A,,Overcast,140,2012-09-20 10:55:00
7:29 AM,50.0,48.0,93,29.68,9.0,South,3.5,-,N/A,,Mostly Cloudy,180,2012-09-20 11:29:00
7:55 AM,50.0,46.9,89,29.69,10.0,SSW,5.8,-,N/A,,Overcast,200,2012-09-20 11:55:00
8:55 AM,51.1,46.9,86,29.69,9.0,SSW,5.8,-,0.00,Rain,Light Rain,210,2012-09-20 12:55:00
9:23 AM,52.0,46.9,83,29.69,10.0,SSW,5.8,-,0.00,,Overcast,210,2012-09-20 13:23:00
9:55 AM,53.1,46.9,80,29.69,10.0,SSW,8.1,-,0.00,,Overcast,200,2012-09-20 13:55:00
10:55 AM,55.9,46.0,69,29.67,10.0,SW,12.7,24.2,N/A,,Mostly Cloudy,230,2012-09-20 14:55:00
11:55 AM,57.9,45.0,62,29.67,10.0,WSW,15.0,20.7,N/A,,Mostly Cloudy,240,2012-09-20 15:55:00
12:55 PM,60.1,45.0,57,29.67,10.0,SW,11.5,21.9,N/A,,Mostly Cloudy,220,2012-09-20 16:55:00
1:55 PM,57.9,44.1,60,29.68,10.0,SW,12.7,-,N/A,,Overcast,230,2012-09-20 17:55:00
2:55 PM,57.9,45.0,62,29.69,10.0,WSW,8.1,-,N/A,,Overcast,250,2012-09-20 18:55:00
3:55 PM,57.0,44.1,62,29.70,10.0,WSW,8.1,-,0.00,,Overcast,240,2012-09-20 19:55:00
4:55 PM,57.0,44.1,62,29.71,10.0,SW,9.2,-,N/A,,Overcast,230,2012-09-20 20:55:00
5:55 PM,55.9,44.1,64,29.73,10.0,WSW,6.9,-,N/A,,Overcast,250,2012-09-20 21:55:00
6:55 PM,55.0,44.1,67,29.75,10.0,WSW,10.4,-,N/A,,Overcast,240,2012-09-20 22:55:00
7:45 PM,53.1,44.1,71,29.76,10.0,WSW,5.8,-,0.00,,Overcast,250,2012-09-20 23:45:00
7:55 PM,53.1,45.0,74,29.76,10.0,WSW,6.9,-,0.00,,Overcast,250,2012-09-20 23:55:00
8:03 PM,53.1,44.1,71,29.76,10.0,WSW,10.4,-,N/A,,Overcast,250,2012-09-21 00:03:00
8:55 PM,52.0,43.0,71,29.78,10.0,WSW,6.9,-,N/A,,Overcast,250,2012-09-21 00:55:00
9:55 PM,51.1,44.1,77,29.78,10.0,WSW,6.9,-,N/A,,Scattered Clouds,240,2012-09-21 01:55:00
10:55 PM,50.0,43.0,77,29.78,10.0,WSW,8.1,-,N/A,,Scattered Clouds,240,2012-09-21 02:55:00
11:55 PM,48.9,43.0,80,29.78,10.0,SW,8.1,-,N/A,,Mostly Cloudy,230,2012-09-21 03:55:00